This is the latest recevied weather packets stored in our database for station/object KB1RMA-13. If no packets are shown the sender has not sent any weather packets the latest 10 day(s).
| Time | Temp. | Humidity | Pressure | Rain* | Wind** | Luminosity | Snow |
|---|---|---|---|---|---|---|---|
| 1777242173 | 15° C | 43% | 1020.1 hPa | 0 mm | - | 111 W/m² | - |
| 1777241870 | 14.44° C | 43% | 1020 hPa | 0 mm | - | 121 W/m² | - |
| 1777241568 | 14.44° C | 43% | 1020 hPa | 0 mm | - | 139 W/m² | - |
| 1777241265 | 14.44° C | 44% | 1020 hPa | 0 mm | - | 145 W/m² | - |
| 1777240962 | 14.44° C | 45% | 1020 hPa | 0 mm | - | 166 W/m² | - |
| 1777240660 | 14.44° C | 42% | 1020.1 hPa | 0 mm | - | 186 W/m² | - |
| 1777240358 | 14.44° C | 42% | 1020 hPa | 0 mm | - | 176 W/m² | - |
| 1777240055 | 15° C | 42% | 1020.2 hPa | 0 mm | - | 204 W/m² | - |
| 1777239753 | 15° C | 41% | 1020 hPa | 0 mm | - | 209 W/m² | - |
| 1777239449 | 14.44° C | 41% | 1020.2 hPa | 0 mm | - | 118 W/m² | - |
| 1777239146 | 15° C | 44% | 1020.1 hPa | 0 mm | - | 284 W/m² | - |
| 1777238843 | 15° C | 42% | 1019.8 hPa | 0 mm | - | 138 W/m² | - |
| 1777238540 | 14.44° C | 43% | 1020 hPa | 0 mm | - | 279 W/m² | - |
| 1777238236 | 14.44° C | 42% | 1019.9 hPa | 0 mm | - | 152 W/m² | - |
| 1777237934 | 15° C | 44% | 1019.8 hPa | 0 mm | - | 329 W/m² | - |
| 1777237629 | 15° C | 44% | 1019.8 hPa | 0 mm | - | 364 W/m² | - |
| 1777237327 | 15° C | 43% | 1019.8 hPa | 0 mm | - | 175 W/m² | - |
| 1777237024 | 15° C | 42% | 1019.7 hPa | 0 mm | - | 368 W/m² | - |
| 1777236722 | 15° C | 43% | 1019.8 hPa | 0 mm | - | 384 W/m² | - |
| 1777236420 | 15° C | 45% | 1019.8 hPa | 0 mm | - | 356 W/m² | - |
| 1777236117 | 14.44° C | 42% | 1019.8 hPa | 0 mm | - | 406 W/m² | - |
| 1777235813 | 15° C | 43% | 1019.7 hPa | 0 mm | - | 389 W/m² | - |
| 1777235511 | 14.44° C | 41% | 1019.7 hPa | 0 mm | - | 186 W/m² | - |
| 1777235207 | 14.44° C | 44% | 1020 hPa | 0 mm | - | 410 W/m² | - |
| 1777234903 | 14.44° C | 46% | 1019.8 hPa | 0 mm | - | 304 W/m² | - |
* Rain latest hour (hover to see other rain measurements)
** Current wind speed in m/s (hover to see current wind gust speed)